Location: G�migny
(47.9646°N, 1.6950°E)
Time: 18:21:17
(UTC+00:00)

YAOGAN 6 - Pass Details

Date: 01 February 2020
Orbit: 465 x 506 km, 97.0° (Epoch: 17 February)

Event Time Altitude Azimuth Distance (km) Brightness Sun altitude
Rises 18:10:48 0° 181° (S) 2,570 6.4 -13.3°
Reaches altitude 10° 18:12:57 10° 188° (S) 1,687 5.5 -13.6°
Maximum altitude 18:16:26 44° 261° (W) 686 3.9 -14.2°
Drops below altitude 10° 18:19:55 10° 335° (NNW) 1,679 5.5 -14.8°
Sets 18:22:02 0° 342° (NNW) 2,557 6.3 -15.1°
